Вернуться в каталог

METEOR 2-5 DEB

АктивенPO
NORAD 29293·DEBRIS·🇷🇺 Russia

Запущен Oct 31, 1979 с Plesetsk Cosmodrome

Loading…

Ближайшие Пролёты (ближайшие 24 часа)

TLE

УстаревающийSource: Space-Track

Эпоха: Sep 10, 2026, 12:53 UTC

1 29293U 79095S   26253.53706042  .00006122  00000-0  15687-2 0  9990
2 29293  81.1973 356.8057 0005083 183.5251 176.5906 14.50256082127772

Отслеживайте METEOR 2-5 DEB в реальном времени с AllMySat

Download on the App Store